EN

Hourly Weather Starokasyanivs'ke

Today, 18 April, Sunday

Time Temperature Precipitation Wind Pressure Humidity
00:00 +8°C° 0 mm 2 mps 756 mmHg 72%
01:00 +8°C° 0 mm 2 mps 755 mmHg 72%
02:00 +7°C° 0 mm 2 mps 755 mmHg 72%
03:00 +7°C° 0 mm 2 mps 755 mmHg 72%
04:00 +7°C° 0 mm 2 mps 755 mmHg 72%
05:00 +7°C° 0 mm 2 mps 755 mmHg 72%
06:00 +8°C° 0 mm 2 mps 755 mmHg 67%
07:00 +9°C° 0 mm 2 mps 755 mmHg 62%
08:00 +12°C° 0 mm 2 mps 755 mmHg 56%
09:00 +13°C° 0 mm 2 mps 754 mmHg 52%
10:00 +14°C° 0 mm 2 mps 754 mmHg 48%
11:00 +14°C° 0 mm 3 mps 754 mmHg 44%
12:00 +15°C° 0 mm 2 mps 754 mmHg 42%
13:00 +16°C° 0 mm 2 mps 753 mmHg 40%
14:00 +16°C° 0 mm 2 mps 753 mmHg 38%
15:00 +16°C° 0 mm 2 mps 753 mmHg 40%
16:00 +16°C° 0 mm 2 mps 753 mmHg 41%
17:00 +16°C° 0 mm 2 mps 753 mmHg 43%
18:00 +14°C° 0 mm 2 mps 753 mmHg 48%
19:00 +13°C° 0 mm 2 mps 753 mmHg 53%
20:00 +12°C° 0 mm 2 mps 754 mmHg 58%
21:00 +10°C° 0 mm 2 mps 753 mmHg 62%
22:00 +9°C° 0 mm 2 mps 753 mmHg 67%
23:00 +9°C° 0 mm 2 mps 753 mmHg 71%

Tomorrow, 19 April, Monday

Time Temperature Precipitation Wind Pressure Humidity
00:00 +8°C° 0 mm 2 mps 753 mmHg 73%
01:00 +8°C° 0 mm 2 mps 753 mmHg 75%
02:00 +9°C° 0 mm 1 mps 754 mmHg 76%
03:00 +8°C° 0 mm 1 mps 753 mmHg 77%
04:00 +8°C° 0 mm 1 mps 753 mmHg 77%
05:00 +7°C° 0 mm 2 mps 753 mmHg 78%
06:00 +9°C° 0 mm 2 mps 753 mmHg 73%
07:00 +10°C° 0 mm 2 mps 753 mmHg 68%
08:00 +12°C° 0 mm 2 mps 753 mmHg 63%
09:00 +13°C° 0 mm 2 mps 753 mmHg 58%
10:00 +14°C° 0 mm 2 mps 753 mmHg 54%
11:00 +15°C° 0 mm 2 mps 752 mmHg 49%
12:00 +16°C° 0 mm 2 mps 752 mmHg 48%
13:00 +16°C° 0 mm 2 mps 752 mmHg 46%
14:00 +16°C° 0 mm 2 mps 752 mmHg 44%
15:00 +16°C° 0 mm 2 mps 751 mmHg 48%
16:00 +15°C° 0 mm 2 mps 751 mmHg 52%
17:00 +15°C° 0 mm 2 mps 751 mmHg 56%
18:00 +14°C° 0 mm 2 mps 751 mmHg 57%
19:00 +14°C° 0 mm 2 mps 751 mmHg 58%
20:00 +13°C° 0 mm 2 mps 751 mmHg 59%
21:00 +13°C° 0 mm 2 mps 751 mmHg 61%
22:00 +11°C° 0 mm 3 mps 750 mmHg 64%
23:00 +11°C° 0 mm 3 mps 749 mmHg 66%

Day after tomorrow, 20 April, Tuesday

Time Temperature Precipitation Wind Pressure Humidity
00:00 +11°C° 0 mm 3 mps 749 mmHg 67%
01:00 +11°C° 0 mm 3 mps 748 mmHg 69%
02:00 +11°C° 0 mm 4 mps 747 mmHg 70%
03:00 +10°C° 0.5 mm 4 mps 747 mmHg 76%
04:00 +10°C° 0.5 mm 4 mps 746 mmHg 82%
05:00 +8°C° 0.5 mm 4 mps 745 mmHg 87%
06:00 +8°C° 2.6 mm 5 mps 745 mmHg 90%
07:00 +8°C° 2.6 mm 5 mps 744 mmHg 92%
08:00 +8°C° 2.6 mm 5 mps 743 mmHg 94%
09:00 +9°C° 2.2 mm 5 mps 742 mmHg 92%
10:00 +10°C° 2.2 mm 5 mps 741 mmHg 90%
11:00 +11°C° 2.2 mm 6 mps 740 mmHg 88%
12:00 +13°C° 0.9 mm 6 mps 740 mmHg 86%
13:00 +13°C° 0.9 mm 6 mps 740 mmHg 84%
14:00 +13°C° 0.9 mm 6 mps 740 mmHg 82%
15:00 +13°C° 0.2 mm 6 mps 740 mmHg 80%
16:00 +11°C° 0.2 mm 6 mps 739 mmHg 78%
17:00 +11°C° 0.2 mm 6 mps 739 mmHg 76%
18:00 +10°C° 0.1 mm 7 mps 740 mmHg 79%
19:00 +9°C° 0.1 mm 7 mps 740 mmHg 82%
20:00 +9°C° 0.1 mm 7 mps 741 mmHg 85%
21:00 +8°C° 0.1 mm 6 mps 741 mmHg 87%
22:00 +8°C° 0.1 mm 6 mps 741 mmHg 89%
23:00 +8°C° 0.1 mm 6 mps 742 mmHg 92%

21 April, Wednesday

Time Temperature Precipitation Wind Pressure Humidity
00:00 +8°C° 0.1 mm 7 mps 743 mmHg 90%
01:00 +6°C° 0.1 mm 7 mps 744 mmHg 89%
02:00 +6°C° 0.1 mm 8 mps 746 mmHg 88%
03:00 +6°C° 0 mm 7 mps 747 mmHg 87%
04:00 +5°C° 0 mm 6 mps 748 mmHg 87%
05:00 +6°C° 0 mm 5 mps 749 mmHg 86%
06:00 +5°C° 0 mm 6 mps 750 mmHg 81%
07:00 +7°C° 0 mm 6 mps 751 mmHg 75%
08:00 +7°C° 0 mm 6 mps 751 mmHg 69%
09:00 +8°C° 0 mm 6 mps 752 mmHg 65%
10:00 +9°C° 0 mm 6 mps 752 mmHg 60%
11:00 +10°C° 0 mm 7 mps 753 mmHg 56%
12:00 +10°C° 0 mm 6 mps 753 mmHg 53%
13:00 +11°C° 0 mm 6 mps 753 mmHg 50%
14:00 +13°C° 0 mm 6 mps 753 mmHg 47%
15:00 +13°C° 0 mm 5 mps 754 mmHg 49%
16:00 +13°C° 0 mm 4 mps 754 mmHg 51%
17:00 +12°C° 0 mm 4 mps 754 mmHg 52%
18:00 +12°C° 0 mm 3 mps 755 mmHg 55%
19:00 +12°C° 0 mm 2 mps 755 mmHg 58%
20:00 +11°C° 0 mm 1 mps 756 mmHg 61%
21:00 +11°C° 0 mm 1 mps 756 mmHg 63%
22:00 +10°C° 0 mm 1 mps 756 mmHg 65%
23:00 +8°C° 0 mm 2 mps 756 mmHg 67%

22 April, Thursday

Time Temperature Precipitation Wind Pressure Humidity
00:00 +8°C° 0 mm 2 mps 756 mmHg 68%
01:00 +8°C° 0 mm 2 mps 757 mmHg 69%
02:00 +9°C° 0 mm 2 mps 757 mmHg 70%
03:00 +8°C° 0 mm 2 mps 757 mmHg 72%
04:00 +8°C° 0 mm 2 mps 757 mmHg 75%
05:00 +8°C° 0 mm 2 mps 757 mmHg 78%
06:00 +10°C° 0 mm 2 mps 757 mmHg 72%
07:00 +12°C° 0 mm 2 mps 758 mmHg 67%
08:00 +13°C° 0 mm 2 mps 758 mmHg 61%
09:00 +13°C° 0.2 mm 3 mps 758 mmHg 57%
10:00 +16°C° 0.2 mm 3 mps 758 mmHg 52%
11:00 +17°C° 0.2 mm 3 mps 758 mmHg 48%
12:00 +17°C° 0.2 mm 3 mps 758 mmHg 49%
13:00 +16°C° 0.2 mm 3 mps 758 mmHg 50%
14:00 +16°C° 0.2 mm 3 mps 757 mmHg 51%
15:00 +16°C° 0.3 mm 3 mps 758 mmHg 54%
16:00 +16°C° 0.3 mm 3 mps 758 mmHg 57%
17:00 +14°C° 0.3 mm 3 mps 758 mmHg 60%
18:00 +13°C° 0.3 mm 3 mps 758 mmHg 65%
19:00 +12°C° 0.3 mm 3 mps 758 mmHg 71%
20:00 +10°C° 0.3 mm 3 mps 758 mmHg 77%
21:00 +10°C° 0 mm 2 mps 758 mmHg 78%
22:00 +9°C° 0 mm 2 mps 758 mmHg 79%
23:00 +9°C° 0 mm 2 mps 758 mmHg 79%

23 April, Friday

Time Temperature Precipitation Wind Pressure Humidity
00:00 +8°C° 0 mm 2 mps 758 mmHg 80%
01:00 +8°C° 0 mm 2 mps 758 mmHg 80%
02:00 +8°C° 0 mm 1 mps 758 mmHg 81%
03:00 +8°C° 0 mm 1 mps 758 mmHg 81%
04:00 +8°C° 0 mm 1 mps 758 mmHg 80%
05:00 +8°C° 0 mm 1 mps 758 mmHg 80%
06:00 +10°C° 0 mm 1 mps 758 mmHg 73%
07:00 +12°C° 0 mm 2 mps 758 mmHg 66%
08:00 +13°C° 0 mm 2 mps 758 mmHg 59%
09:00 +15°C° 0 mm 2 mps 758 mmHg 54%
10:00 +16°C° 0 mm 2 mps 758 mmHg 49%
11:00 +17°C° 0 mm 2 mps 758 mmHg 44%
12:00 +18°C° 0 mm 2 mps 757 mmHg 43%
13:00 +18°C° 0 mm 2 mps 757 mmHg 41%
14:00 +19°C° 0 mm 2 mps 757 mmHg 40%
15:00 +18°C° 0 mm 2 mps 757 mmHg 43%
16:00 +18°C° 0 mm 2 mps 757 mmHg 46%
17:00 +17°C° 0 mm 2 mps 757 mmHg 49%
18:00 +16°C° 0 mm 2 mps 757 mmHg 53%
19:00 +15°C° 0 mm 2 mps 757 mmHg 58%
20:00 +14°C° 0 mm 2 mps 757 mmHg 62%
21:00 +13°C° 0 mm 2 mps 757 mmHg 66%
22:00 +12°C° 0 mm 2 mps 757 mmHg 69%
23:00 +9°C° 0 mm 2 mps 757 mmHg 73%
Show more

We Need Your Consent

Meteoprog and our Service Providers may store and access personal data such as cookies, device identifiers or other similar technologies on your device and process such data to personalise content and ads, as well as provide social media features and to analyse the traffic.

  • Store and/or access information on your device

    Cookies, device identifiers or other information can be stored or accessed on your device for the purposes indicated above.

  • Personalised ads and content, ad and content measurement, audience insights, and products development

    Ads and content can be personalised based on a profile. More data can be added to better personalise ads and content. Ad and content performance can be measured. Insights about the audience who saw the ads and content can be derived. Such data can be used to develop or improve user’s experience, systems and software.

By clicking ‘I Agree’ you will allow the use of indicated cookies, device identifiers, web beacons or other similar technologies. Your settings can be changed in the browser on your device.

For certain purposes, legitimate interests may be relied on, rather than consent. You can read more about this in our Privacy and Cookie Policy.